Location: Berg
(48.4333°N, 13.9167°E)
Time: 15:27:14
(UTC+00:00)

Lacrosse 5 rocket - Pass Details

Date: 18 September 2020
Orbit: 460 x 635 km, 57.0° (Epoch: 23 October)

Event Time Altitude Azimuth Distance (km) Brightness Sun altitude
Rises 21:27:32 0° 303° (WNW) 2,854 5.7 -36.4°
Reaches altitude 10° 21:29:53 10° 311° (NW) 1,972 4.8 -36.6°
Enters shadow 21:30:47 15° 316° (NW) 1,654 4.3 -36.7°
